Home > Weather > Lillestrøm > Past weeks

Flag for Norway Past Weather in Lillestrøm, Norway — Yesterday and Last 2 Weeks

Now
75 °F

Partly sunny.


Feels Like: 78 °F
Forecast: 55 / 68 °F
Wind: 3 mph from Southwest

Location: Oslo-Blindern

Current Time: Jun 25, 2016 at 2:26:12 PM

Latest Report: Jun 25, 2016 at 2:00 PM


Visibility: 41 mi

Pressure: 29.96 "Hg

Humidity: 49%

Dew Point: 54 °F

Location of LillestrømLocation

Past Weather in Lillestrøm — Graph

°F

Lillestrøm Temperature Yesterday

Maximum temperature yesterday: 67 °F (at 2:00 PM)
Minimum temperature yesterday: 58 °F (at 2:00 AM)
Average temperature yesterday: 63 °F

High & Low Weather Summary for the Past Weeks

 TemperatureHumidityPressure
High76 °F (Jun 16, 4:00 PM)98% (Jun 21, 3:00 AM)30.15 "Hg (Jun 21, 3:00 AM)
Low44 °F (Jun 11, 5:00 AM)20% (Jun 14, 8:00 PM)29.54 "Hg (Jun 16, 7:00 PM)
Average61 °F66%29.83 "Hg
* Reported Jun 10 1:00 PM — Jun 25 1:00 PM, Lillestrøm, Weather by CustomWeather, © 2016

Note: Actual official high and low records may vary slightly from our data, if they occured in-between our weather recording intervals... More about our weather records

Advertising

Lillestrøm Weather History for the Previous 24 Hours

Scroll right to see more
 ConditionsComfort  
Time TempWeatherWind HumidityBarometerVisibility
1:00 PM
Sat, Jun 25
74 °FMild.3 mph51%29.96 "Hg15 mi
12:00 PM72 °FMild.3 mph58%29.97 "Hg17 mi
11:00 AM70 °FScattered clouds.2 mph61%29.97 "Hg40 mi
10:00 AM68 °FMild.3 mph69%29.96 "Hg18 mi
9:00 AM67 °FMild.3 mph72%29.96 "Hg16 mi
8:00 AM65 °FPartly sunny.2 mph78%29.95 "Hg31 mi
7:00 AM61 °FCool.3 mph91%29.96 "Hg10 mi
6:00 AM60 °FCool.3 mph93%29.95 "Hg8 mi
5:00 AM60 °FCool.2 mph94%29.94 "Hg9 mi
4:00 AM60 °FCool.3 mph93%29.94 "Hg9 mi
3:00 AM61 °FCool.3 mph91%29.93 "Hg9 mi
2:00 AM61 °FCool.3 mph91%29.93 "Hg9 mi
1:00 AM61 °FCool.3 mph91%29.92 "Hg9 mi
12:00 AM62 °FCool.5 mph91%29.91 "Hg7 mi
11:00 PM
Fri, Jun 24
64 °FFog.5 mph90%29.91 "Hg5 mi
10:00 PM65 °FFog.5 mph90%29.91 "Hg4 mi
9:00 PM66 °FMild.3 mph87%29.89 "Hg11 mi
8:00 PM66 °FOvercast.1 mph86%29.89 "Hg16 mi
7:00 PM66 °FMild.2 mph87%29.90 "Hg13 mi
6:00 PM66 °FRain showers. Cloudy.2 mph86%29.91 "Hg12 mi
5:00 PM65 °FRain. Overcast.1 mph88%29.93 "Hg12 mi
4:00 PM65 °FRain showers. Cloudy.2 mph85%29.94 "Hg3 mi
3:00 PM67 °FMild.1 mph75%29.94 "Hg9 mi
2:00 PM67 °FOvercast.2 mph75%29.96 "Hg40 mi
Weather by CustomWeather, © 2016

See weather overviewHow to use our weather pages